Location: Newark
(51.2625°N, 13.3939°E)
Time: 16:44:55
(UTC+00:00)

deb Explorer IX - Pass Details

Date: 18 November 2019
Orbit: 545 x 1105 km, 38.8° (Epoch: 08 December)

Event Time Altitude Azimuth Distance (km) Brightness Sun altitude
Rises 04:22:24 0° 255° (WSW) 3,268 - -19.3°
Reaches altitude 10° 04:26:02 10° 233° (SW) 2,208 - -18.7°
Exits shadow 04:27:27 13° 218° (SW) 1,939 ? -18.5°
Maximum altitude 04:28:48 15° 200° (SSW) 1,816 ? -18.3°
Drops below altitude 10° 04:31:22 10° 166° (SSE) 2,029 ? -17.9°
Sets 04:34:29 0° 142° (SE) 2,843 ? -17.4°
